Portada
METAR-TAF:

METAR-TAF

Aeroports :

Decorah Municipal Airport

Decorah, Iowa, Estats Units d'Amèrica

latitud: 43-17N, longitud: 091-44W, altitud: 353 m

Observació

L'informe es va fer fa 15 minuts, a les 16:55 UTC
Vent 6 kt del Sud-Oest amb ràfegues de 13 kt
Temperatura -7°C
Humitat 100%
Pressió 1022 hPa
Visibilitat: 4.8 km
Cel cobert a una alçada de 400 ft
boirina

METAR: KDEH 101655Z AUTO 23006G13KT 3SM BR OVC004 M07/M07 A3018 RMK AO2

Hora: 11:10 (17:10 UTC)


TAF: manca

Observacions i pronòstics meteorològics de més de 4000 aeroports (METAR i TAF).

Les estacions disponibles són els punts grocs i vermells al mapa.

Posi el ratolí al punt desitjat per veure el nom de l'estació.

Feu clic per veure les observacions i els pronòstics meteorològics.

Per canviar el mapa: feu clic els botons verds amb una creu de color negre per apropar; al botó verd amb un guió per allunyar la imatge; o en les fletxes verdes per a mapes adjacents.


METAR-TAF: